Voltar ao catálogo

YAOGAN-39 01B

AtivoMilitarVLEO
NORAD 57728·PAYLOAD·🇨🇳 China

Lançado Aug 31, 2023 de Xichang Satellite Launch Center

Loading…

Próximas Passagens (próximas 24 horas)

TLE

AtualizadoSource: Space-Track

Época: Sep 14, 2026, 14:03 UTC

1 57728U 23130B   26257.58575088  .00004003  00000-0  19954-3 0  9994
2 57728  34.9947 315.3677 0009229 165.8666 194.2306 15.16972726169062

Acompanhe YAOGAN-39 01B em tempo real com AllMySat

Download on the App Store